Time,TemperatureF,DewpointF,PressureIn,WindDirection,WindDirectionDegrees,WindSpeedMPH,WindSpeedGustMPH,Humidity,HourlyPrecipIn,Conditions,Clouds,dailyrainin,SoftwareType,DateUTC
2013-09-21 00:00:00,70.1,64.7,29.92,East,80,0.0,0.0,83,0.00,,,0.00,Wunderground v.1.15,2013-09-21 04:00:00,
2013-09-21 00:05:00,70.1,64.7,29.93,East,81,0.0,0.0,83,0.00,,,0.00,Wunderground v.1.15,2013-09-21 04:05:00,
2013-09-21 00:15:00,70.1,64.7,29.92,East,81,0.0,0.0,83,0.00,,,0.00,Wunderground v.1.15,2013-09-21 04:15:00,
2013-09-21 00:20:00,70.0,64.6,29.92,East,81,0.0,0.0,83,0.00,,,0.00,Wunderground v.1.15,2013-09-21 04:20:00,
2013-09-21 00:25:00,69.9,64.5,29.92,East,81,0.0,0.0,83,0.00,,,0.00,Wunderground v.1.15,2013-09-21 04:25:00,
2013-09-21 00:30:00,69.7,64.3,29.92,East,81,0.0,0.0,83,0.00,,,0.00,Wunderground v.1.15,2013-09-21 04:30:00,
2013-09-21 00:35:00,69.5,64.1,29.92,East,81,0.0,0.0,83,0.00,,,0.00,Wunderground v.1.15,2013-09-21 04:35:00,
2013-09-21 00:40:00,69.3,63.9,29.92,East,81,0.0,0.0,83,0.00,,,0.00,Wunderground v.1.15,2013-09-21 04:40:00,
2013-09-21 00:45:00,69.0,63.6,29.92,East,80,0.0,0.0,83,0.00,,,0.00,Wunderground v.1.15,2013-09-21 04:45:00,
2013-09-21 00:50:00,68.8,63.8,29.91,East,81,0.0,0.0,84,0.00,,,0.00,Wunderground v.1.15,2013-09-21 04:50:00,
2013-09-21 00:55:00,68.7,63.7,29.91,East,80,0.0,0.0,84,0.00,,,0.00,Wunderground v.1.15,2013-09-21 04:55:00,
2013-09-21 01:00:00,68.6,63.6,29.91,East,81,0.0,0.0,84,0.00,,,0.00,Wunderground v.1.15,2013-09-21 05:00:00,
2013-09-21 01:05:00,68.6,63.6,29.91,East,81,0.0,0.0,84,0.00,,,0.00,Wunderground v.1.15,2013-09-21 05:05:00,
2013-09-21 01:10:00,68.5,63.5,29.91,East,80,0.0,0.0,84,0.00,,,0.00,Wunderground v.1.15,2013-09-21 05:10:00,
2013-09-21 01:15:00,68.6,63.6,29.90,East,81,0.0,0.0,84,0.00,,,0.00,Wunderground v.1.15,2013-09-21 05:15:00,
2013-09-21 01:20:00,68.4,63.4,29.90,East,80,0.0,0.0,84,0.00,,,0.00,Wunderground v.1.15,2013-09-21 05:20:00,
2013-09-21 01:25:00,68.3,63.3,29.90,East,80,0.0,0.0,84,0.00,,,0.00,Wunderground v.1.15,2013-09-21 05:25:00,
2013-09-21 01:30:00,68.3,63.3,29.90,East,80,0.0,0.0,84,0.00,,,0.00,Wunderground v.1.15,2013-09-21 05:30:00,
2013-09-21 01:40:00,68.2,63.2,29.90,East,81,0.0,0.0,84,0.00,,,0.00,Wunderground v.1.15,2013-09-21 05:40:00,
2013-09-21 01:45:00,68.1,63.1,29.90,East,80,0.0,0.0,84,0.00,,,0.00,Wunderground v.1.15,2013-09-21 05:45:00,
2013-09-21 01:50:00,68.1,63.1,29.90,East,81,0.0,0.0,84,0.00,,,0.00,Wunderground v.1.15,2013-09-21 05:50:00,
2013-09-21 01:55:00,68.0,63.0,29.90,East,81,0.0,0.0,84,0.00,,,0.00,Wunderground v.1.15,2013-09-21 05:55:00,
2013-09-21 02:00:00,67.9,62.9,29.90,East,80,0.0,0.0,84,0.00,,,0.00,Wunderground v.1.15,2013-09-21 06:00:00,
2013-09-21 02:05:00,68.0,63.0,29.89,East,80,0.0,0.0,84,0.00,,,0.00,Wunderground v.1.15,2013-09-21 06:05:00,
2013-09-21 02:15:00,67.7,62.7,29.89,East,81,0.0,0.0,84,0.00,,,0.00,Wunderground v.1.15,2013-09-21 06:15:00,
2013-09-21 02:20:00,67.5,62.5,29.89,East,81,0.0,0.0,84,0.00,,,0.00,Wunderground v.1.15,2013-09-21 06:20:00,
2013-09-21 02:25:00,67.5,62.5,29.89,East,81,0.0,0.0,84,0.00,,,0.00,Wunderground v.1.15,2013-09-21 06:25:00,
2013-09-21 02:35:00,67.3,62.3,29.89,East,81,0.0,0.0,84,0.00,,,0.00,Wunderground v.1.15,2013-09-21 06:35:00,
2013-09-21 02:40:00,67.2,62.2,29.89,East,80,0.0,0.0,84,0.00,,,0.00,Wunderground v.1.15,2013-09-21 06:40:00,
2013-09-21 02:45:00,67.1,62.1,29.88,East,81,0.0,0.0,84,0.00,,,0.00,Wunderground v.1.15,2013-09-21 06:45:00,
2013-09-21 02:50:00,67.1,62.1,29.88,East,81,0.0,0.0,84,0.00,,,0.00,Wunderground v.1.15,2013-09-21 06:50:00,
2013-09-21 02:55:00,67.1,62.1,29.88,East,81,0.0,0.0,84,0.00,,,0.00,Wunderground v.1.15,2013-09-21 06:55:00,
2013-09-21 03:00:00,67.0,62.0,29.88,East,80,0.0,0.0,84,0.00,,,0.00,Wunderground v.1.15,2013-09-21 07:00:00,
2013-09-21 03:05:00,66.9,61.9,29.88,East,81,0.0,0.0,84,0.00,,,0.00,Wunderground v.1.15,2013-09-21 07:05:00,
2013-09-21 03:10:00,66.8,61.8,29.88,East,81,0.0,0.0,84,0.00,,,0.00,Wunderground v.1.15,2013-09-21 07:10:00,
2013-09-21 03:15:00,66.9,61.9,29.87,East,80,0.0,0.0,84,0.00,,,0.00,Wunderground v.1.15,2013-09-21 07:15:00,
2013-09-21 03:20:00,66.9,61.9,29.87,East,80,0.0,0.0,84,0.00,,,0.00,Wunderground v.1.15,2013-09-21 07:20:00,
2013-09-21 03:25:00,67.0,62.0,29.87,East,80,0.0,0.0,84,0.00,,,0.00,Wunderground v.1.15,2013-09-21 07:25:00,
2013-09-21 03:30:00,66.9,61.9,29.87,East,81,0.0,0.0,84,0.00,,,0.00,Wunderground v.1.15,2013-09-21 07:30:00,
2013-09-21 03:35:00,66.9,61.9,29.86,East,81,0.0,0.0,84,0.00,,,0.00,Wunderground v.1.15,2013-09-21 07:35:00,
2013-09-21 03:40:00,66.8,61.8,29.86,East,81,0.0,0.0,84,0.00,,,0.00,Wunderground v.1.15,2013-09-21 07:40:00,
2013-09-21 03:50:00,66.6,61.6,29.86,East,81,0.0,0.0,84,0.00,,,0.00,Wunderground v.1.15,2013-09-21 07:50:00,
2013-09-21 03:55:00,66.6,61.6,29.86,East,81,0.0,0.0,84,0.00,,,0.00,Wunderground v.1.15,2013-09-21 07:55:00,
2013-09-21 04:00:00,66.5,61.5,29.85,East,81,0.0,0.0,84,0.00,,,0.00,Wunderground v.1.15,2013-09-21 08:00:00,
2013-09-21 04:05:00,66.5,61.5,29.85,East,81,0.0,0.0,84,0.00,,,0.00,Wunderground v.1.15,2013-09-21 08:05:00,
2013-09-21 04:15:00,66.6,61.6,29.85,East,80,0.0,0.0,84,0.00,,,0.00,Wunderground v.1.15,2013-09-21 08:15:00,
2013-09-21 04:20:00,66.7,61.7,29.85,East,81,0.0,0.0,84,0.00,,,0.00,Wunderground v.1.15,2013-09-21 08:20:00,
2013-09-21 04:25:00,66.7,61.7,29.84,East,80,0.0,0.0,84,0.00,,,0.00,Wunderground v.1.15,2013-09-21 08:25:00,
2013-09-21 04:30:00,66.6,61.6,29.84,East,81,0.0,0.0,84,0.00,,,0.00,Wunderground v.1.15,2013-09-21 08:30:00,
2013-09-21 04:35:00,66.6,61.6,29.84,East,81,0.0,0.0,84,0.00,,,0.00,Wunderground v.1.15,2013-09-21 08:35:00,
2013-09-21 04:40:00,66.6,61.6,29.84,East,80,0.0,0.0,84,0.00,,,0.00,Wunderground v.1.15,2013-09-21 08:40:00,
2013-09-21 04:45:00,66.5,61.5,29.84,East,81,0.0,0.0,84,0.00,,,0.00,Wunderground v.1.15,2013-09-21 08:45:00,
2013-09-21 04:50:00,66.5,61.5,29.84,East,81,0.0,0.0,84,0.00,,,0.00,Wunderground v.1.15,2013-09-21 08:50:00,
2013-09-21 04:55:00,66.6,61.6,29.84,East,81,0.0,0.0,84,0.00,,,0.00,Wunderground v.1.15,2013-09-21 08:55:00,
2013-09-21 05:00:00,66.6,61.6,29.84,East,81,0.0,0.0,84,0.00,,,0.00,Wunderground v.1.15,2013-09-21 09:00:00,
2013-09-21 05:05:00,66.7,61.7,29.84,East,81,0.0,0.0,84,0.00,,,0.00,Wunderground v.1.15,2013-09-21 09:05:00,
2013-09-21 05:10:00,66.7,61.7,29.84,East,81,0.0,0.0,84,0.00,,,0.00,Wunderground v.1.15,2013-09-21 09:10:00,
2013-09-21 05:15:00,66.7,61.7,29.84,East,80,0.0,0.0,84,0.00,,,0.00,Wunderground v.1.15,2013-09-21 09:15:00,
2013-09-21 05:20:00,66.5,61.5,29.84,East,80,0.0,0.0,84,0.00,,,0.00,Wunderground v.1.15,2013-09-21 09:20:00,
2013-09-21 05:25:00,66.3,61.3,29.84,East,80,0.0,0.0,84,0.00,,,0.00,Wunderground v.1.15,2013-09-21 09:25:00,
2013-09-21 05:30:00,66.0,61.0,29.84,East,81,0.0,0.0,84,0.00,,,0.00,Wunderground v.1.15,2013-09-21 09:30:00,
2013-09-21 05:40:00,65.7,60.7,29.84,East,80,0.0,0.0,84,0.00,,,0.00,Wunderground v.1.15,2013-09-21 09:40:00,
2013-09-21 05:45:00,65.7,60.7,29.84,East,81,0.0,0.0,84,0.00,,,0.00,Wunderground v.1.15,2013-09-21 09:45:00,
2013-09-21 05:50:00,65.8,60.8,29.84,East,81,0.0,0.0,84,0.00,,,0.00,Wunderground v.1.15,2013-09-21 09:50:00,
2013-09-21 05:55:00,65.9,60.9,29.84,East,81,0.0,0.0,84,0.00,,,0.00,Wunderground v.1.15,2013-09-21 09:55:00,
2013-09-21 06:00:00,66.0,61.0,29.84,East,81,0.0,0.0,84,0.00,,,0.00,Wunderground v.1.15,2013-09-21 10:00:00,
2013-09-21 06:05:00,66.0,61.0,29.84,East,80,0.0,0.0,84,0.00,,,0.00,Wunderground v.1.15,2013-09-21 10:05:00,
2013-09-21 06:15:00,66.1,61.1,29.84,East,80,0.0,0.0,84,0.00,,,0.00,Wunderground v.1.15,2013-09-21 10:15:00,
2013-09-21 06:20:00,66.1,61.1,29.84,East,81,0.0,0.0,84,0.00,,,0.00,Wunderground v.1.15,2013-09-21 10:20:00,
2013-09-21 06:30:00,65.7,60.7,29.85,East,80,0.0,0.0,84,0.00,,,0.00,Wunderground v.1.15,2013-09-21 10:30:00,
2013-09-21 06:35:00,65.7,60.7,29.85,East,81,0.0,0.0,84,0.00,,,0.00,Wunderground v.1.15,2013-09-21 10:35:00,
2013-09-21 06:40:00,65.6,60.6,29.85,East,80,0.0,0.0,84,0.00,,,0.00,Wunderground v.1.15,2013-09-21 10:40:00,
2013-09-21 06:45:00,65.6,60.6,29.85,East,81,0.0,0.0,84,0.00,,,0.00,Wunderground v.1.15,2013-09-21 10:45:00,
2013-09-21 06:50:00,65.5,60.5,29.85,East,81,0.0,0.0,84,0.00,,,0.00,Wunderground v.1.15,2013-09-21 10:50:00,
2013-09-21 06:55:00,65.4,60.4,29.85,East,81,0.0,0.0,84,0.00,,,0.00,Wunderground v.1.15,2013-09-21 10:55:00,
2013-09-21 07:00:00,65.5,60.5,29.85,East,81,0.0,0.0,84,0.00,,,0.00,Wunderground v.1.15,2013-09-21 11:00:00,
2013-09-21 07:05:00,65.6,60.6,29.85,East,81,0.0,0.0,84,0.00,,,0.00,Wunderground v.1.15,2013-09-21 11:05:00,
2013-09-21 07:10:00,65.7,60.7,29.85,East,81,0.0,0.0,84,0.00,,,0.00,Wunderground v.1.15,2013-09-21 11:10:00,
2013-09-21 07:15:00,65.8,60.8,29.85,East,81,0.0,0.0,84,0.00,,,0.00,Wunderground v.1.15,2013-09-21 11:15:00,
2013-09-21 07:20:00,65.8,60.8,29.85,East,81,0.0,0.0,84,0.00,,,0.00,Wunderground v.1.15,2013-09-21 11:20:00,
2013-09-21 07:25:00,65.8,60.8,29.85,East,81,0.0,0.0,84,0.00,,,0.00,Wunderground v.1.15,2013-09-21 11:25:00,
2013-09-21 07:30:00,65.7,60.7,29.85,East,80,0.0,0.0,84,0.00,,,0.00,Wunderground v.1.15,2013-09-21 11:30:00,
2013-09-21 07:35:00,65.6,60.6,29.85,East,81,0.0,0.0,84,0.00,,,0.00,Wunderground v.1.15,2013-09-21 11:35:00,
2013-09-21 07:40:00,65.8,60.8,29.86,East,80,0.0,0.0,84,0.00,,,0.00,Wunderground v.1.15,2013-09-21 11:40:00,
2013-09-21 07:50:00,66.6,61.6,29.86,East,81,0.0,0.0,84,0.00,,,0.00,Wunderground v.1.15,2013-09-21 11:50:00,
2013-09-21 07:55:00,67.1,62.1,29.86,East,81,0.0,0.0,84,0.00,,,0.00,Wunderground v.1.15,2013-09-21 11:55:00,
2013-09-21 08:00:00,68.0,63.0,29.86,East,81,0.0,0.0,84,0.00,,,0.00,Wunderground v.1.15,2013-09-21 12:00:00,
2013-09-21 08:05:00,69.1,64.1,29.86,East,81,0.0,0.0,84,0.00,,,0.00,Wunderground v.1.15,2013-09-21 12:05:00,
2013-09-21 08:15:00,71.4,66.0,29.86,East,81,0.0,0.0,83,0.00,,,0.00,Wunderground v.1.15,2013-09-21 12:15:00,
2013-09-21 08:25:00,73.5,68.0,29.86,East,81,0.0,0.0,83,0.00,,,0.00,Wunderground v.1.15,2013-09-21 12:25:00,
2013-09-21 08:35:00,75.0,69.5,29.87,East,81,0.0,0.0,83,0.00,,,0.00,Wunderground v.1.15,2013-09-21 12:35:00,
2013-09-21 08:40:00,75.4,69.9,29.87,East,81,0.0,0.0,83,0.00,,,0.00,Wunderground v.1.15,2013-09-21 12:40:00,
2013-09-21 08:45:00,76.1,70.6,29.87,ESE,110,0.0,0.0,83,0.00,,,0.00,Wunderground v.1.15,2013-09-21 12:45:00,
2013-09-21 08:50:00,76.6,71.0,29.87,ESE,110,0.0,0.0,83,0.00,,,0.00,Wunderground v.1.15,2013-09-21 12:50:00,
2013-09-21 08:55:00,77.2,71.6,29.87,ESE,110,0.0,0.0,83,0.00,,,0.00,Wunderground v.1.15,2013-09-21 12:55:00,
2013-09-21 09:10:00,78.4,72.8,29.87,ESE,110,0.0,0.0,83,0.00,,,0.00,Wunderground v.1.15,2013-09-21 13:10:00,
2013-09-21 09:15:00,78.7,73.1,29.87,ESE,111,0.0,0.0,83,0.00,,,0.00,Wunderground v.1.15,2013-09-21 13:15:00,
2013-09-21 09:20:00,78.9,73.3,29.87,ESE,111,0.0,0.0,83,0.00,,,0.00,Wunderground v.1.15,2013-09-21 13:20:00,
2013-09-21 09:25:00,79.3,73.7,29.87,ESE,111,0.0,0.0,83,0.00,,,0.00,Wunderground v.1.15,2013-09-21 13:25:00,
2013-09-21 09:30:00,79.6,74.0,29.88,ESE,111,0.0,0.0,83,0.00,,,0.00,Wunderground v.1.15,2013-09-21 13:30:00,
2013-09-21 09:40:00,80.0,74.0,29.88,ESE,110,0.0,0.0,82,0.00,,,0.00,Wunderground v.1.15,2013-09-21 13:40:00,
2013-09-21 09:45:00,80.3,74.3,29.87,ESE,110,0.0,0.0,82,0.00,,,0.00,Wunderground v.1.15,2013-09-21 13:45:00,
2013-09-21 09:50:00,80.5,74.5,29.87,ESE,111,0.0,0.0,82,0.00,,,0.00,Wunderground v.1.15,2013-09-21 13:50:00,
2013-09-21 09:55:00,80.5,74.1,29.87,ESE,110,0.0,0.0,81,0.00,,,0.00,Wunderground v.1.15,2013-09-21 13:55:00,
2013-09-21 10:00:00,80.6,74.2,29.86,ESE,115,0.0,0.0,81,0.00,,,0.00,Wunderground v.1.15,2013-09-21 14:00:00,
2013-09-21 10:05:00,80.8,74.4,29.86,ESE,115,1.0,1.0,81,0.00,,,0.00,Wunderground v.1.15,2013-09-21 14:05:00,
2013-09-21 10:10:00,81.1,74.7,29.86,ESE,116,1.0,1.0,81,0.00,,,0.00,Wunderground v.1.15,2013-09-21 14:10:00,
2013-09-21 10:15:00,81.4,75.0,29.86,ESE,116,1.0,1.0,81,0.00,,,0.00,Wunderground v.1.15,2013-09-21 14:15:00,
2013-09-21 10:20:00,81.9,75.5,29.86,ESE,115,1.0,3.0,81,0.00,,,0.00,Wunderground v.1.15,2013-09-21 14:20:00,
2013-09-21 10:30:00,82.0,75.2,29.85,SE,125,3.0,3.0,80,0.00,,,0.00,Wunderground v.1.15,2013-09-21 14:30:00,
2013-09-21 10:35:00,82.1,74.9,29.86,ESE,123,4.0,4.0,79,0.00,,,0.00,Wunderground v.1.15,2013-09-21 14:35:00,
2013-09-21 10:40:00,82.3,75.1,29.85,ESE,123,3.0,4.0,79,0.00,,,0.00,Wunderground v.1.15,2013-09-21 14:40:00,
2013-09-21 10:45:00,82.6,75.4,29.85,ESE,123,3.0,4.0,79,0.00,,,0.00,Wunderground v.1.15,2013-09-21 14:45:00,
2013-09-21 10:50:00,82.7,75.1,29.85,ESE,122,3.0,3.0,78,0.00,,,0.00,Wunderground v.1.15,2013-09-21 14:50:00,
2013-09-21 11:00:00,83.3,75.7,29.85,ESE,122,3.0,3.0,78,0.00,,,0.00,Wunderground v.1.15,2013-09-21 15:00:00,
2013-09-21 11:05:00,83.6,75.6,29.85,ESE,122,2.0,3.0,77,0.00,,,0.00,Wunderground v.1.15,2013-09-21 15:05:00,
2013-09-21 11:10:00,83.7,75.7,29.85,ESE,122,2.0,2.0,77,0.00,,,0.00,Wunderground v.1.15,2013-09-21 15:10:00,
2013-09-21 11:15:00,84.0,76.0,29.85,SE,131,2.0,2.0,77,0.00,,,0.00,Wunderground v.1.15,2013-09-21 15:15:00,
2013-09-21 11:20:00,84.6,75.8,29.85,SE,135,2.0,6.0,75,0.00,,,0.00,Wunderground v.1.15,2013-09-21 15:20:00,
2013-09-21 11:25:00,84.7,75.9,29.84,SE,138,2.0,6.0,75,0.00,,,0.00,Wunderground v.1.15,2013-09-21 15:25:00,
2013-09-21 11:30:00,84.5,75.7,29.84,SE,137,2.0,2.0,75,0.00,,,0.00,Wunderground v.1.15,2013-09-21 15:30:00,
2013-09-21 11:35:00,84.4,75.6,29.85,SE,138,0.0,6.0,75,0.00,,,0.00,Wunderground v.1.15,2013-09-21 15:35:00,
2013-09-21 11:40:00,84.1,75.3,29.85,SE,142,2.0,2.0,75,0.00,,,0.00,Wunderground v.1.15,2013-09-21 15:40:00,
2013-09-21 11:45:00,84.5,75.7,29.85,SE,141,3.0,5.0,75,0.00,,,0.00,Wunderground v.1.15,2013-09-21 15:45:00,
2013-09-21 11:50:00,84.8,76.4,29.85,SSE,157,3.0,4.0,76,0.00,,,0.00,Wunderground v.1.15,2013-09-21 15:50:00,
2013-09-21 11:55:00,85.1,76.3,29.85,SSE,157,4.0,4.0,75,0.00,,,0.00,Wunderground v.1.15,2013-09-21 15:55:00,
2013-09-21 12:05:00,85.4,76.6,29.84,SSE,157,0.0,2.0,75,0.00,,,0.00,Wunderground v.1.15,2013-09-21 16:05:00,
2013-09-21 12:10:00,85.9,77.1,29.85,SSE,157,1.0,5.0,75,0.00,,,0.00,Wunderground v.1.15,2013-09-21 16:10:00,
2013-09-21 12:15:00,86.3,76.6,29.84,SSE,157,2.0,5.0,73,0.00,,,0.00,Wunderground v.1.15,2013-09-21 16:15:00,
2013-09-21 12:20:00,86.4,76.3,29.84,SSE,157,1.0,1.0,72,0.00,,,0.00,Wunderground v.1.15,2013-09-21 16:20:00,
2013-09-21 12:25:00,86.4,76.7,29.84,SSE,157,0.0,1.0,73,0.00,,,0.00,Wunderground v.1.15,2013-09-21 16:25:00,
2013-09-21 12:30:00,86.7,76.2,29.84,SSE,157,1.0,3.0,71,0.00,,,0.00,Wunderground v.1.15,2013-09-21 16:30:00,
2013-09-21 12:35:00,86.6,76.1,29.84,SSE,157,3.0,4.0,71,0.00,,,0.00,Wunderground v.1.15,2013-09-21 16:35:00,
2013-09-21 12:40:00,86.7,76.2,29.84,SSE,157,4.0,5.0,71,0.00,,,0.00,Wunderground v.1.15,2013-09-21 16:40:00,
2013-09-21 12:45:00,87.1,76.1,29.83,SSE,157,2.0,5.0,70,0.00,,,0.00,Wunderground v.1.15,2013-09-21 16:45:00,
2013-09-21 12:50:00,87.5,76.5,29.83,SSE,157,2.0,3.0,70,0.00,,,0.00,Wunderground v.1.15,2013-09-21 16:50:00,
2013-09-21 13:00:00,87.5,76.5,29.83,SSE,157,2.0,6.0,70,0.00,,,0.00,Wunderground v.1.15,2013-09-21 17:00:00,
2013-09-21 13:05:00,87.1,76.1,29.83,SSE,157,4.0,6.0,70,0.00,,,0.00,Wunderground v.1.15,2013-09-21 17:05:00,
2013-09-21 13:10:00,87.4,76.4,29.83,SSE,157,3.0,4.0,70,0.00,,,0.00,Wunderground v.1.15,2013-09-21 17:10:00,
2013-09-21 13:15:00,87.9,76.0,29.83,SSE,157,1.0,4.0,68,0.00,,,0.00,Wunderground v.1.15,2013-09-21 17:15:00,
2013-09-21 13:20:00,88.4,76.9,29.83,SSE,157,1.0,5.0,69,0.00,,,0.00,Wunderground v.1.15,2013-09-21 17:20:00,
2013-09-21 13:25:00,88.3,75.9,29.82,SSE,160,3.0,5.0,67,0.00,,,0.00,Wunderground v.1.15,2013-09-21 17:25:00,
2013-09-21 13:30:00,88.1,76.2,29.82,SSE,160,3.0,6.0,68,0.00,,,0.00,Wunderground v.1.15,2013-09-21 17:30:00,
2013-09-21 13:40:00,88.4,75.6,29.82,SSE,161,3.0,3.0,66,0.00,,,0.00,Wunderground v.1.15,2013-09-21 17:40:00,
2013-09-21 13:45:00,88.4,75.6,29.82,SSE,161,3.0,3.0,66,0.00,,,0.00,Wunderground v.1.15,2013-09-21 17:45:00,
2013-09-21 13:50:00,88.4,76.0,29.82,SSE,161,2.0,4.0,67,0.00,,,0.00,Wunderground v.1.15,2013-09-21 17:50:00,
2013-09-21 13:55:00,87.7,74.9,29.82,SSE,160,2.0,4.0,66,0.00,,,0.00,Wunderground v.1.15,2013-09-21 17:55:00,
2013-09-21 14:00:00,87.3,74.5,29.81,SSE,160,2.0,2.0,66,0.00,,,0.00,Wunderground v.1.15,2013-09-21 18:00:00,
2013-09-21 14:05:00,88.0,75.7,29.81,SSE,161,0.0,4.0,67,0.00,,,0.00,Wunderground v.1.15,2013-09-21 18:05:00,
2013-09-21 14:10:00,88.4,76.0,29.81,SSE,161,2.0,2.0,67,0.00,,,0.00,Wunderground v.1.15,2013-09-21 18:10:00,
2013-09-21 14:15:00,88.5,75.7,29.81,SSE,161,2.0,2.0,66,0.00,,,0.00,Wunderground v.1.15,2013-09-21 18:15:00,
2013-09-21 14:20:00,88.3,75.5,29.81,SSE,161,0.0,3.0,66,0.00,,,0.00,Wunderground v.1.15,2013-09-21 18:20:00,
2013-09-21 14:25:00,88.3,75.0,29.80,SSE,161,1.0,5.0,65,0.00,,,0.00,Wunderground v.1.15,2013-09-21 18:25:00,
2013-09-21 14:30:00,88.4,75.1,29.80,SSE,160,3.0,3.0,65,0.00,,,0.00,Wunderground v.1.15,2013-09-21 18:30:00,
2013-09-21 14:40:00,88.5,75.2,29.79,SSE,159,3.0,4.0,65,0.00,,,0.00,Wunderground v.1.15,2013-09-21 18:40:00,
2013-09-21 14:50:00,88.6,74.9,29.79,SSE,165,2.0,2.0,64,0.00,,,0.00,Wunderground v.1.15,2013-09-21 18:50:00,
2013-09-21 14:55:00,88.7,75.0,29.78,SSE,164,2.0,2.0,64,0.00,,,0.00,Wunderground v.1.15,2013-09-21 18:55:00,
2013-09-21 15:00:00,89.3,76.0,29.78,SSE,164,1.0,1.0,65,0.00,,,0.00,Wunderground v.1.15,2013-09-21 19:00:00,
2013-09-21 15:05:00,89.6,75.8,29.78,SSE,165,1.0,1.0,64,0.00,,,0.00,Wunderground v.1.15,2013-09-21 19:05:00,
2013-09-21 15:10:00,89.6,75.3,29.77,SSE,165,2.0,4.0,63,0.00,,,0.00,Wunderground v.1.15,2013-09-21 19:10:00,
2013-09-21 15:15:00,89.7,75.4,29.77,SSE,163,3.0,4.0,63,0.00,,,0.00,Wunderground v.1.15,2013-09-21 19:15:00,
2013-09-21 15:20:00,89.3,74.6,29.77,SSE,163,3.0,3.0,62,0.00,,,0.00,Wunderground v.1.15,2013-09-21 19:20:00,
2013-09-21 15:25:00,88.8,74.1,29.77,SSE,163,2.0,4.0,62,0.00,,,0.00,Wunderground v.1.15,2013-09-21 19:25:00,
2013-09-21 15:30:00,88.5,74.8,29.77,SSE,163,1.0,1.0,64,0.00,,,0.00,Wunderground v.1.15,2013-09-21 19:30:00,
2013-09-21 15:35:00,89.1,75.3,29.77,SSE,163,0.0,1.0,64,0.00,,,0.00,Wunderground v.1.15,2013-09-21 19:35:00,
2013-09-21 15:45:00,89.5,74.3,29.76,SSE,161,2.0,4.0,61,0.00,,,0.00,Wunderground v.1.15,2013-09-21 19:45:00,
2013-09-21 15:55:00,89.1,74.4,29.75,SSE,160,3.0,3.0,62,0.00,,,0.00,Wunderground v.1.15,2013-09-21 19:55:00,
2013-09-21 16:00:00,89.2,74.5,29.75,SSE,160,2.0,2.0,62,0.00,,,0.00,Wunderground v.1.15,2013-09-21 20:00:00,
2013-09-21 16:05:00,89.4,74.2,29.75,SSE,160,1.0,3.0,61,0.00,,,0.00,Wunderground v.1.15,2013-09-21 20:05:00,
2013-09-21 16:10:00,89.2,74.5,29.75,SSE,160,2.0,2.0,62,0.00,,,0.00,Wunderground v.1.15,2013-09-21 20:10:00,
2013-09-21 16:20:00,89.4,74.7,29.75,SSE,160,2.0,6.0,62,0.00,,,0.00,Wunderground v.1.15,2013-09-21 20:20:00,
2013-09-21 16:30:00,88.7,74.5,29.75,SSE,160,1.0,1.0,63,0.00,,,0.00,Wunderground v.1.15,2013-09-21 20:30:00,
2013-09-21 16:35:00,88.2,74.5,29.75,SSE,160,0.0,1.0,64,0.00,,,0.00,Wunderground v.1.15,2013-09-21 20:35:00,
2013-09-21 16:40:00,87.7,73.5,29.74,SSE,160,0.0,0.0,63,0.00,,,0.00,Wunderground v.1.15,2013-09-21 20:40:00,
2013-09-21 16:45:00,87.8,73.6,29.74,SSE,160,2.0,2.0,63,0.00,,,0.00,Wunderground v.1.15,2013-09-21 20:45:00,
2013-09-21 16:50:00,87.7,73.1,29.74,SSE,160,2.0,2.0,62,0.00,,,0.00,Wunderground v.1.15,2013-09-21 20:50:00,
2013-09-21 16:55:00,87.6,73.0,29.74,SSE,160,1.0,3.0,62,0.00,,,0.00,Wunderground v.1.15,2013-09-21 20:55:00,
2013-09-21 17:00:00,88.1,73.9,29.74,SSE,160,1.0,1.0,63,0.00,,,0.00,Wunderground v.1.15,2013-09-21 21:00:00,
2013-09-21 17:05:00,88.6,73.9,29.74,SSE,160,2.0,2.0,62,0.00,,,0.00,Wunderground v.1.15,2013-09-21 21:05:00,
2013-09-21 17:15:00,88.7,74.0,29.74,SSE,160,3.0,3.0,62,0.00,,,0.00,Wunderground v.1.15,2013-09-21 21:15:00,
2013-09-21 17:20:00,88.7,74.5,29.74,SSE,160,1.0,1.0,63,0.00,,,0.00,Wunderground v.1.15,2013-09-21 21:20:00,
2013-09-21 17:30:00,88.7,74.5,29.74,SSE,160,1.0,1.0,63,0.00,,,0.00,Wunderground v.1.15,2013-09-21 21:30:00,
2013-09-21 17:35:00,88.5,73.8,29.74,SSE,160,1.0,1.0,62,0.00,,,0.00,Wunderground v.1.15,2013-09-21 21:35:00,
2013-09-21 17:40:00,88.4,74.2,29.74,SSE,160,0.0,0.0,63,0.00,,,0.00,Wunderground v.1.15,2013-09-21 21:40:00,
2013-09-21 17:45:00,88.5,73.8,29.74,SSE,160,0.0,3.0,62,0.00,,,0.00,Wunderground v.1.15,2013-09-21 21:45:00,
2013-09-21 17:50:00,88.1,73.4,29.74,SSE,160,1.0,1.0,62,0.00,,,0.00,Wunderground v.1.15,2013-09-21 21:50:00,
2013-09-21 17:55:00,87.5,73.3,29.74,SSE,160,1.0,1.0,63,0.00,,,0.00,Wunderground v.1.15,2013-09-21 21:55:00,
2013-09-21 18:05:00,86.9,74.6,29.74,SSE,160,0.0,0.0,67,0.00,,,0.00,Wunderground v.1.15,2013-09-21 22:05:00,
2013-09-21 18:10:00,87.0,74.7,29.74,SSE,160,0.0,0.0,67,0.00,,,0.00,Wunderground v.1.15,2013-09-21 22:10:00,
2013-09-21 18:15:00,87.1,75.3,29.74,SSE,160,0.0,0.0,68,0.00,,,0.00,Wunderground v.1.15,2013-09-21 22:15:00,
2013-09-21 18:20:00,86.8,74.5,29.74,SSE,160,0.0,0.0,67,0.00,,,0.00,Wunderground v.1.15,2013-09-21 22:20:00,
2013-09-21 18:25:00,86.3,74.0,29.74,SSE,160,0.0,0.0,67,0.00,,,0.00,Wunderground v.1.15,2013-09-21 22:25:00,
2013-09-21 18:30:00,85.8,74.0,29.74,SSE,160,0.0,0.0,68,0.00,,,0.00,Wunderground v.1.15,2013-09-21 22:30:00,
2013-09-21 18:35:00,85.3,74.4,29.74,SSE,160,0.0,0.0,70,0.00,,,0.00,Wunderground v.1.15,2013-09-21 22:35:00,
2013-09-21 18:40:00,84.7,73.8,29.74,SSE,160,0.0,0.0,70,0.00,,,0.00,Wunderground v.1.15,2013-09-21 22:40:00,
2013-09-21 18:45:00,84.1,73.7,29.74,SSE,160,0.0,0.0,71,0.00,,,0.00,Wunderground v.1.15,2013-09-21 22:45:00,
2013-09-21 18:50:00,83.5,73.5,29.74,SSE,160,0.0,0.0,72,0.00,,,0.00,Wunderground v.1.15,2013-09-21 22:50:00,
2013-09-21 18:55:00,82.9,73.4,29.74,SSE,160,0.0,0.0,73,0.00,,,0.00,Wunderground v.1.15,2013-09-21 22:55:00,
2013-09-21 19:00:00,82.3,73.2,29.75,SSE,160,0.0,0.0,74,0.00,,,0.00,Wunderground v.1.15,2013-09-21 23:00:00,
2013-09-21 19:05:00,81.7,73.0,29.75,SSE,160,0.0,0.0,75,0.00,,,0.00,Wunderground v.1.15,2013-09-21 23:05:00,
2013-09-21 19:10:00,81.1,72.4,29.75,SSE,160,0.0,0.0,75,0.00,,,0.00,Wunderground v.1.15,2013-09-21 23:10:00,
2013-09-21 19:20:00,80.2,71.9,29.75,SSE,160,0.0,0.0,76,0.00,,,0.00,Wunderground v.1.15,2013-09-21 23:20:00,
2013-09-21 19:25:00,79.8,71.9,29.75,SSE,160,0.0,0.0,77,0.00,,,0.00,Wunderground v.1.15,2013-09-21 23:25:00,
2013-09-21 19:30:00,79.4,71.6,29.75,SSE,160,0.0,0.0,77,0.00,,,0.00,Wunderground v.1.15,2013-09-21 23:30:00,
2013-09-21 19:35:00,78.9,71.5,29.75,SSE,160,0.0,0.0,78,0.00,,,0.00,Wunderground v.1.15,2013-09-21 23:35:00,
2013-09-21 19:45:00,78.2,70.8,29.75,SSE,160,0.0,0.0,78,0.00,,,0.00,Wunderground v.1.15,2013-09-21 23:45:00,
2013-09-21 19:50:00,77.8,70.8,29.75,SSE,160,0.0,0.0,79,0.00,,,0.00,Wunderground v.1.15,2013-09-21 23:50:00,
2013-09-21 20:00:00,77.1,70.1,29.75,SSE,160,0.0,0.0,79,0.00,,,0.00,Wunderground v.1.15,2013-09-22 00:00:00,
2013-09-21 20:05:00,76.9,70.3,29.75,SSE,160,0.0,0.0,80,0.00,,,0.00,Wunderground v.1.15,2013-09-22 00:05:00,
2013-09-21 20:10:00,76.6,70.0,29.75,SSE,160,0.0,0.0,80,0.00,,,0.00,Wunderground v.1.15,2013-09-22 00:10:00,
2013-09-21 20:15:00,76.2,69.6,29.75,SSE,160,0.0,0.0,80,0.00,,,0.00,Wunderground v.1.15,2013-09-22 00:15:00,
2013-09-21 20:20:00,76.0,69.4,29.75,SSE,160,0.0,0.0,80,0.00,,,0.00,Wunderground v.1.15,2013-09-22 00:20:00,
2013-09-21 20:25:00,75.7,69.5,29.75,SSE,160,0.0,0.0,81,0.00,,,0.00,Wunderground v.1.15,2013-09-22 00:25:00,
2013-09-21 20:30:00,75.5,69.3,29.75,SSE,160,0.0,0.0,81,0.00,,,0.00,Wunderground v.1.15,2013-09-22 00:30:00,
2013-09-21 20:35:00,75.3,69.1,29.75,SSE,160,0.0,0.0,81,0.00,,,0.00,Wunderground v.1.15,2013-09-22 00:35:00,
2013-09-21 20:40:00,75.1,68.9,29.75,SSE,160,0.0,0.0,81,0.00,,,0.00,Wunderground v.1.15,2013-09-22 00:40:00,
2013-09-21 20:45:00,74.8,68.6,29.75,SSE,160,0.0,0.0,81,0.00,,,0.00,Wunderground v.1.15,2013-09-22 00:45:00,
2013-09-21 20:50:00,74.6,68.7,29.75,SSE,160,0.0,0.0,82,0.00,,,0.00,Wunderground v.1.15,2013-09-22 00:50:00,
2013-09-21 20:55:00,74.5,68.6,29.76,SSE,160,0.0,0.0,82,0.00,,,0.00,Wunderground v.1.15,2013-09-22 00:55:00,
2013-09-21 21:00:00,74.4,68.5,29.76,SSE,160,0.0,0.0,82,0.00,,,0.00,Wunderground v.1.15,2013-09-22 01:00:00,
2013-09-21 21:05:00,74.2,68.3,29.76,SSE,160,0.0,0.0,82,0.00,,,0.00,Wunderground v.1.15,2013-09-22 01:05:00,
2013-09-21 21:10:00,74.1,68.3,29.76,SSE,160,0.0,0.0,82,0.00,,,0.00,Wunderground v.1.15,2013-09-22 01:10:00,
2013-09-21 21:15:00,74.0,68.2,29.76,SSE,160,0.0,0.0,82,0.00,,,0.00,Wunderground v.1.15,2013-09-22 01:15:00,
2013-09-21 21:20:00,73.9,68.1,29.77,SSE,160,0.0,0.0,82,0.00,,,0.00,Wunderground v.1.15,2013-09-22 01:20:00,
2013-09-21 21:25:00,73.8,68.0,29.77,SSE,160,0.0,0.0,82,0.00,,,0.00,Wunderground v.1.15,2013-09-22 01:25:00,
2013-09-21 21:30:00,73.7,67.9,29.77,SSE,160,0.0,0.0,82,0.00,,,0.00,Wunderground v.1.15,2013-09-22 01:30:00,
2013-09-21 21:35:00,73.7,67.9,29.77,SSE,160,0.0,0.0,82,0.00,,,0.00,Wunderground v.1.15,2013-09-22 01:35:00,
2013-09-21 21:40:00,73.5,67.7,29.77,SSE,160,0.0,0.0,82,0.00,,,0.00,Wunderground v.1.15,2013-09-22 01:40:00,
2013-09-21 21:45:00,73.5,68.0,29.77,SSE,160,0.0,0.0,83,0.00,,,0.00,Wunderground v.1.15,2013-09-22 01:45:00,
2013-09-21 21:50:00,73.5,68.0,29.77,SSE,160,0.0,0.0,83,0.00,,,0.00,Wunderground v.1.15,2013-09-22 01:50:00,
2013-09-21 21:55:00,73.4,67.9,29.77,SSE,160,0.0,0.0,83,0.00,,,0.00,Wunderground v.1.15,2013-09-22 01:55:00,
2013-09-21 22:00:00,73.3,67.8,29.78,SSE,160,0.0,0.0,83,0.00,,,0.00,Wunderground v.1.15,2013-09-22 02:00:00,
2013-09-21 22:05:00,73.4,67.9,29.78,SSE,160,0.0,0.0,83,0.00,,,0.00,Wunderground v.1.15,2013-09-22 02:05:00,
2013-09-21 22:15:00,74.3,68.8,29.78,SSE,160,0.0,0.0,83,0.00,,,0.00,Wunderground v.1.15,2013-09-22 02:15:00,
2013-09-21 22:20:00,74.3,68.8,29.78,SSE,160,0.0,0.0,83,0.00,,,0.00,Wunderground v.1.15,2013-09-22 02:20:00,
2013-09-21 22:25:00,74.2,68.7,29.78,SSE,160,0.0,0.0,83,0.00,,,0.00,Wunderground v.1.15,2013-09-22 02:25:00,
2013-09-21 22:35:00,74.1,68.6,29.78,SSE,160,0.0,0.0,83,0.00,,,0.00,Wunderground v.1.15,2013-09-22 02:35:00,
2013-09-21 22:40:00,74.0,68.5,29.78,SSE,160,0.0,0.0,83,0.00,,,0.00,Wunderground v.1.15,2013-09-22 02:40:00,
2013-09-21 22:45:00,73.9,68.4,29.78,SSE,160,0.0,0.0,83,0.00,,,0.00,Wunderground v.1.15,2013-09-22 02:45:00,
2013-09-21 22:50:00,73.9,68.4,29.78,SSE,160,0.0,0.0,83,0.00,,,0.00,Wunderground v.1.15,2013-09-22 02:50:00,
2013-09-21 22:55:00,73.9,68.4,29.78,SSE,160,0.0,0.0,83,0.00,,,0.00,Wunderground v.1.15,2013-09-22 02:55:00,
2013-09-21 23:00:00,73.8,68.3,29.78,SSE,160,0.0,0.0,83,0.00,,,0.00,Wunderground v.1.15,2013-09-22 03:00:00,
2013-09-21 23:05:00,73.9,68.4,29.78,SSE,160,0.0,0.0,83,0.00,,,0.00,Wunderground v.1.15,2013-09-22 03:05:00,
2013-09-21 23:10:00,73.9,68.4,29.78,SSE,160,0.0,0.0,83,0.00,,,0.00,Wunderground v.1.15,2013-09-22 03:10:00,
2013-09-21 23:15:00,74.0,68.5,29.78,SSE,160,0.0,0.0,83,0.00,,,0.00,Wunderground v.1.15,2013-09-22 03:15:00,
2013-09-21 23:20:00,74.0,68.5,29.78,SSE,160,0.0,0.0,83,0.00,,,0.00,Wunderground v.1.15,2013-09-22 03:20:00,
2013-09-21 23:25:00,74.0,68.5,29.78,SSE,160,0.0,0.0,83,0.00,,,0.00,Wunderground v.1.15,2013-09-22 03:25:00,
2013-09-21 23:30:00,74.0,68.5,29.78,SSE,160,0.0,0.0,83,0.00,,,0.00,Wunderground v.1.15,2013-09-22 03:30:00,
2013-09-21 23:35:00,74.0,68.5,29.78,SSE,160,0.0,0.0,83,0.00,,,0.00,Wunderground v.1.15,2013-09-22 03:35:00,
2013-09-21 23:40:00,73.9,68.4,29.79,SSE,160,0.0,0.0,83,0.00,,,0.00,Wunderground v.1.15,2013-09-22 03:40:00,
2013-09-21 23:45:00,73.8,68.3,29.78,SSE,160,0.0,0.0,83,0.00,,,0.00,Wunderground v.1.15,2013-09-22 03:45:00,
2013-09-21 23:50:00,73.8,68.7,29.78,SSE,160,0.0,0.0,84,0.00,,,0.00,Wunderground v.1.15,2013-09-22 03:50:00,
2013-09-21 23:55:00,73.8,68.7,29.78,SSE,160,0.0,0.0,84,0.00,,,0.00,Wunderground v.1.15,2013-09-22 03:55:00,